Tracking 19286 objects as of 19-Nov-2018
HD Live streaming from Space Station
objects crossing your sky now

EXPLORER 30

Track EXPLORER 30 now!
10-day predictions
EXPLORER 30 is classified as:


NORAD ID: 1738
Int'l Code: 1965-093A
Perigee: 667.8 km
Apogee: 862.3 km
Inclination: 59.7 °
Period: 100.0 minutes
Semi major axis: 7136 km
RCS: 0.3725 m2 (medium)
Launch date: November 19, 1965
Source: United States (US)
Launch site: WALLOPS ISLAND (WLPIS)
aabbcc
Your satellite tracking list
Your tracking list is empty




NASA's NSSDC Master Catalog

Two Line Element Set (TLE):
1  1738U 65093A   18322.89571016 -.00000114 +00000-0 +12339-4 0  9994
2  1738 059.7080 282.0257 0136268 028.8814 331.9677 14.40173404757714
Source of the keplerian elements: AFSPC